Location: Hains Lake
(37.8540°N, 99.8578°W)
Time: 21:32:29
(UTC+00:00)

deb Explorer IX - Pass Details

Date: 26 April 2021
Orbit: 541 x 1098 km, 38.8° (Epoch: 13 May)

Event Time Altitude Azimuth Distance (km) Brightness Sun altitude
Rises 10:15:14 0° 227° (SW) 2,782 - -17.5°
Reaches altitude 10° 10:17:43 10° 218° (SW) 1,838 - -17.1°
Exits shadow 10:19:58 25° 193° (SSW) 1,128 ? -16.7°
Maximum altitude 10:21:27 33° 154° (SSE) 930 ? -16.5°
Drops below altitude 10° 10:25:06 10° 89° (E) 1,797 ? -15.9°
Sets 10:27:30 0° 80° (E) 2,709 ? -15.5°
